Location: Unspecified
(0.0000°N, 0.0000°E)
Time: 03:47:04
(UTC+00:00)

Transit 2A Rocket - Visible Passes

Search period start: 22 April 2015 00:00
Search period end: 02 May 2015 00:00
Orbit: 585 x 921 km, 66.7° (Epoch: 21 April)

Date Brightness Start Highest point End Pass type
(mag) Time Alt. Az. Time Alt. Az. Time Alt. Az.
22 Apr 5.3 19:18:32 10° S 19:23:41 48° ESE 19:29:18 10° NE visible
22 Apr 8.0 21:04:01 10° W 21:06:31 12° WNW 21:08:36 10° NW visible
23 Apr 6.1 18:37:28 10° SSE 18:41:39 24° ESE 18:46:18 10° NE visible
23 Apr 7.2 20:19:39 10° WSW 20:24:13 25° WNW 20:28:53 10° NNW visible
24 Apr 6.0 19:36:46 10° SW 19:42:03 50° WNW 19:47:44 10° N visible
25 Apr 5.1 18:54:34 10° SSW 19:00:00 81° ESE 19:05:54 10° NNE visible
26 Apr 5.6 18:12:59 10° S 18:18:00 40° ESE 18:23:26 10° NE visible
26 Apr 8.1 19:57:17 10° WSW 20:00:43 16° WNW 20:03:54 10° NNW visible
27 Apr 7.1 19:13:35 10° SW 19:18:28 31° WNW 19:23:33 10° N visible
28 Apr 5.8 18:30:55 10° SSW 18:36:19 62° WNW 18:42:10 10° N visible
29 Apr 7.7 05:21:35 10° NNE 05:25:11 21° ENE 05:28:44 10° ESE visible
30 Apr 8.2 18:50:52 10° WSW 18:54:55 19° WNW 18:58:52 10° NNW visible
